Back to catalog

STARLINK-32174

AliveCommunicationsVLEO
NORAD 61509·PAYLOAD·🇺🇸 United States

Launched Oct 15, 2024 from Cape Canaveral Space Force Station

Loading…

Next Passes (next 24 hours)

TLE

FreshSource: CelesTrak SupGP

Epoch: Sep 14, 2026, 14:44 UTC

1 61509C 24183A   26257.61437500 -.00000774  00000+0 -22889-4 0  2576
2 61509  53.1589 328.9233 0001203  82.5751 250.4219 15.34372732    19

Track STARLINK-32174 in real time with AllMySat

Download on the App Store